Overview Statistics Trail Chart Weather Telemetry Raw packets
 

This is the latest recevied weather packets stored in our database for station/object NB9X. If no packets are shown the sender has not sent any weather packets the latest 10 day(s).

<< 17 18 19 20 21 22 23 >>
Time Temp. Humidity Pressure Rain* Wind** Luminosity Snow
1788532460 31.67° C 100% 1014.3 hPa 0 mm - - -
1788532176 31.67° C 100% 1014.3 hPa 0 mm - - -
1788531860 31.67° C 100% 1014.2 hPa 0 mm - - -
1788531560 31.11° C 100% 1014.1 hPa 0 mm - - -
1788531260 30.56° C 100% 1014.1 hPa 0 mm - - -
1788530960 31.11° C 100% 1014 hPa 0 mm - - -
1788530660 31.11° C 100% 1014 hPa 0 mm - - -
1788530360 31.11° C 100% 1014.1 hPa 0 mm - - -
1788530060 31.11° C 100% 1014 hPa 0 mm - - -
1788529760 31.11° C 100% 1014 hPa 0 mm - - -
1788529460 30.56° C 100% 1014 hPa 0 mm - - -
1788529165 30.56° C 100% 1014 hPa 0 mm - - -
1788528860 30.56° C 100% 1014 hPa 0 mm - - -
1788528560 30° C 100% 1014 hPa 0 mm - - -
1788528260 30° C 100% 1013.9 hPa 0 mm - - -
1788527960 29.44° C 100% 1013.7 hPa 0 mm - - -
1788527660 29.44° C 100% 1013.6 hPa 0 mm - - -
1788527360 29.44° C 100% 1013.5 hPa 0 mm - - -
1788527060 28.89° C 100% 1013.6 hPa 0 mm - - -
1788526760 28.33° C 100% 1013.6 hPa 0 mm - - -
1788526460 28.33° C 100% 1013.7 hPa 0 mm - - -
1788526160 28.89° C 100% 1013.8 hPa 0 mm - - -
1788525860 28.33° C 100% 1013.8 hPa 0 mm - - -
1788525560 27.78° C 100% 1013.8 hPa 0 mm - - -
1788525260 27.78° C 100% 1013.7 hPa 0 mm - - -

* Rain latest hour (hover to see other rain measurements)
** Current wind speed in m/s (hover to see current wind gust speed)